Hourly Data Report for January 15, 2012

HALIFAX STANFIELD INT'L A
NOVA SCOTIA

44°52'48.060" N
63°30'00.050" W
145.40 m
8202250
71395
YHZ

Download Data

Hourly Data (January 2012)
Hourly Data Report for January 15, 2012
TIME
LST
Temp Definition
°C
Dew Point Definition
°C
Rel Hum Definition
%
Precip. Amount Definition
mm

Wind Dir Definition
10's deg

Wind Spd Definition
km/h
Visibility Definition
km
Stn Press Definition
kPa
Hmdx Definition


Wind Chill Definition


Weather Definition


00:00 -5.7 -9.6 74   30 19 16.1 98.74   -12 Snow Showers
01:00 -7.1 -10.0 80   31 24 16.1 98.80   -15 Snow Showers
02:00 -8.1 -11.7 75   32 28 8.0 98.94   -17 Snow Showers
03:00 -8.9 -12.2 77   31 22 6.4 99.03   -17 Snow Showers
04:00 -9.5 -12.4 79   30 20 9.7 99.09   -17 Snow Showers
05:00 -10.8 -14.0 77   32 24 19.3 99.16   -20 Snow Showers
06:00 -11.7 -14.6 79   31 20 24.1 99.27   -20 Cloudy
07:00 -12.5 -16.0 75   31 22 24.1 99.35   -21 Mostly Cloudy
08:00 -12.7 -15.3 81   32 24 19.3 99.44   -22 Snow Showers
09:00 -12.5 -15.2 80   33 20 19.3 99.50   -21 Snow Showers
10:00 -11.9 -14.7 80   33 22 4.8 99.53   -21 Snow Showers
11:00 -11.7 -14.7 78   34 19 12.9 99.60   -20 Snow Showers
12:00 -12.0 -15.2 77   33 19 19.3 99.59   -20 Snow Showers
13:00 -11.0 -15.3 71   34 19 24.1 99.60   -19 Snow Showers
14:00 -10.8 -15.9 66   32 26 19.3 99.63   -20 Snow Showers
15:00 -11.3 -14.2 79   35 20 2.4 99.72   -20 Snow Showers
16:00 -11.7 -16.4 68   33 28 19.3 99.78   -21 Snow Showers
17:00 -12.4 -17.7 65   32 22 24.1 99.83   -21 Mainly Clear
18:00 -13.0 -18.5 63   32 22 24.1 99.92   -22 Clear
19:00 -13.6 -18.8 65   32 19 24.1 100.03   -22 Clear
20:00 -14.9 -19.0 71   35 11 24.1 100.08   -21 Clear
21:00 -15.2 -19.3 71   34 11 24.1 100.13   -22 Clear
22:00 -14.8 -19.4 68   31 13 24.1 100.15   -22 Clear
23:00 -14.8 -18.1 76   31 15 24.1 100.20   -23 Clear

Notes on Data Quality.

Legend

  • E = Estimated
  • M = Missing
  • NA = Not Available*
  • [empty] = Indicates an unobserved value
Date modified: